Weather History for Manistique, MI

Change the Weather History Date:

Wednesday, October 19, 2011

  Actual Average Record
Temperature  
Mean Temperature 42 °F -  
Max Temperature 51 °F 52 °F 74 °F (1953)
Min Temperature 32 °F 34 °F 23 °F (1989)
Degree Days  
Heating Degree Days 24    
Moisture  
Dew Point 35 °F    
Average Humidity 76    
Maximum Humidity 93    
Minimum Humidity 54    
Precipitation  
Precipitation 0.00 in - - ()
Sea Level Pressure  
Sea Level Pressure 29.93 in    
Wind  
Wind Speed 8 mph (North)    
Max Wind Speed 20 mph    
Max Gust Speed 26 mph    
Visibility 10 miles    
Events      
Averages and records for this station are not official NWS values.
T = Trace of Precipitation, MM = Missing Value Source: NWS Daily Summary

Daily Weather History Graph

Daily Weather History Graph

Search for Another Location

Airport:

Trip Planner

Search our weather history database for the weather conditions in past years. The results will help you decide how hot, cold, wet, or windy it might be!

Date:

Astronomy

Oct. 19, 2011 Rise Set
Actual Time 8:06 AM EDT 6:52 PM EDT
Civil Twilight 7:36 AM EDT 7:22 PM EDT
Nautical Twilight 7:01 AM EDT 7:56 PM EDT
Astronomical Twilight 6:26 AM EDT 8:31 PM EDT
Moon No Moon Rise 2:46 PM EDT (10/19)
Length of Visible Light 11h 46m
Length of Day
10h 45m
Waning Gibbous, 55% of the Moon is Illuminated
Oct 19
Waning Gibbous
Oct 19
Last Quarter
Oct 26
New
Nov 2
First Quarter
Nov 10
Full

Hourly Weather History & Observations

Time (EDT) Temp. Windchill Dew Point Humidity Pressure Visibility Wind Dir Wind Speed Gust Speed Precip Events Conditions
12:14 AM 32.0 °F 28.7 °F 30.2 °F 93% 29.93 in 10.0 mi NNW 3.5 mph - N/A   Clear
12:34 AM 32.0 °F 27.5 °F 30.2 °F 93% 29.93 in 10.0 mi NNW 4.6 mph - N/A   Clear
12:54 AM 32.0 °F 27.5 °F 30.2 °F 93% 29.93 in 10.0 mi NNW 4.6 mph - N/A   Clear
1:14 AM 32.0 °F 27.5 °F 30.2 °F 93% 29.93 in 10.0 mi NNW 4.6 mph - N/A   Clear
1:35 AM 32.0 °F 27.5 °F 30.2 °F 93% 29.93 in 10.0 mi NNW 4.6 mph - N/A   Clear
1:54 AM 32.0 °F 27.5 °F 28.4 °F 87% 29.92 in 10.0 mi NNW 4.6 mph - N/A   Scattered Clouds
2:14 AM 33.8 °F 29.6 °F 30.2 °F 87% 29.93 in 10.0 mi NNW 4.6 mph - N/A   Mostly Cloudy
2:35 AM 33.8 °F 29.6 °F 30.2 °F 87% 29.93 in 10.0 mi North 4.6 mph - N/A   Overcast
2:54 AM 35.6 °F 30.7 °F 33.8 °F 93% 29.93 in 10.0 mi North 5.8 mph - N/A   Overcast
3:03 AM 35.6 °F 31.7 °F 33.8 °F 93% 29.93 in 10.0 mi North 4.6 mph - N/A   Overcast
3:35 AM 35.6 °F 29.9 °F 32.0 °F 87% 29.93 in 10.0 mi North 6.9 mph - N/A   Overcast
4:15 AM 35.6 °F 30.7 °F 33.8 °F 93% 29.93 in 10.0 mi North 5.8 mph - N/A   Overcast
4:34 AM 35.6 °F 29.9 °F 33.8 °F 93% 29.93 in 10.0 mi North 6.9 mph - N/A   Overcast
4:54 AM 37.4 °F 32.1 °F 33.8 °F 87% 29.92 in 10.0 mi North 6.9 mph - N/A   Overcast
5:34 AM 37.4 °F 32.1 °F 33.8 °F 87% 29.93 in 10.0 mi North 6.9 mph - N/A   Overcast
5:55 AM 37.4 °F 32.1 °F 35.6 °F 93% 29.93 in 10.0 mi North 6.9 mph - N/A   Overcast
6:14 AM 37.4 °F 31.4 °F 35.6 °F 93% 29.93 in 10.0 mi North 8.1 mph - N/A   Overcast
6:54 AM 37.4 °F 32.8 °F 33.8 °F 87% 29.94 in 10.0 mi North 5.8 mph - N/A   Mostly Cloudy
7:14 AM 37.4 °F 32.8 °F 35.6 °F 93% 29.94 in 10.0 mi North 5.8 mph - N/A   Overcast
7:34 AM 37.4 °F 33.8 °F 35.6 °F 93% 29.95 in 10.0 mi North 4.6 mph - N/A   Overcast
7:54 AM 37.4 °F 32.8 °F 35.6 °F 93% 29.95 in 10.0 mi North 5.8 mph - N/A   Overcast
8:34 AM 39.2 °F 33.0 °F 35.6 °F 87% 29.95 in 10.0 mi North 9.2 mph - N/A   Overcast
8:54 AM 39.2 °F 33.0 °F 37.4 °F 93% 29.95 in 10.0 mi North 9.2 mph - N/A   Overcast
9:15 AM 41.0 °F 35.2 °F 37.4 °F 87% 29.96 in 10.0 mi North 9.2 mph - N/A   Overcast
9:34 AM 41.0 °F 34.7 °F 37.4 °F 87% 29.96 in 10.0 mi NNE 10.4 mph - N/A   Overcast
9:54 AM 42.8 °F 37.5 °F 37.4 °F 81% 29.96 in 10.0 mi NNE 9.2 mph 16.1 mph N/A   Scattered Clouds
10:14 AM 42.8 °F 38.0 °F 37.4 °F 81% 29.97 in 10.0 mi NE 8.1 mph - N/A   Clear
10:34 AM 44.6 °F 39.7 °F 39.2 °F 81% 29.97 in 10.0 mi NNE 9.2 mph - N/A   Clear
10:54 AM 46.4 °F 41.1 °F 39.2 °F 76% 29.97 in 10.0 mi NNE 11.5 mph - N/A   Scattered Clouds
11:14 AM 48.2 °F - 39.2 °F 71% 29.97 in 10.0 mi NNE 12.7 mph 19.6 mph N/A   Scattered Clouds
11:34 AM 46.4 °F 41.1 °F 37.4 °F 71% 29.97 in 10.0 mi NNE 11.5 mph 17.3 mph N/A   Mostly Cloudy
11:54 AM 46.4 °F 41.5 °F 37.4 °F 71% 29.97 in 10.0 mi North 10.4 mph - N/A   Overcast
12:15 PM 48.2 °F - 37.4 °F 66% 29.97 in 10.0 mi NNE 11.5 mph 17.3 mph N/A   Mostly Cloudy
12:54 PM 48.2 °F - 35.6 °F 62% 29.96 in 10.0 mi NE 15.0 mph 21.9 mph N/A   Scattered Clouds
1:15 PM 50.0 °F - 35.6 °F 58% 29.96 in 10.0 mi North 15.0 mph - N/A   Clear
1:34 PM 51.8 °F - 35.6 °F 54% 29.94 in 10.0 mi NNE 16.1 mph 20.7 mph N/A   Scattered Clouds
1:54 PM 51.8 °F - 35.6 °F 54% 29.93 in 10.0 mi NE 16.1 mph 26.5 mph N/A   Scattered Clouds
2:15 PM 51.8 °F - 37.4 °F 58% 29.93 in 10.0 mi NNE 15.0 mph 20.7 mph N/A   Scattered Clouds
2:34 PM 51.8 °F - 35.6 °F 54% 29.92 in 10.0 mi NE 13.8 mph 24.2 mph N/A   Scattered Clouds
2:54 PM 51.8 °F - 35.6 °F 54% 29.92 in 10.0 mi NNE 19.6 mph 25.3 mph N/A   Scattered Clouds
3:14 PM 51.8 °F - 35.6 °F 54% 29.93 in 10.0 mi NNE 13.8 mph 20.7 mph N/A   Mostly Cloudy
3:34 PM 51.8 °F - 37.4 °F 58% 29.93 in 10.0 mi North 17.3 mph - N/A   Mostly Cloudy
3:54 PM 50.0 °F - 37.4 °F 62% 29.91 in 10.0 mi NNE 13.8 mph 19.6 mph N/A   Scattered Clouds
4:14 PM 50.0 °F - 35.6 °F 58% 29.91 in 10.0 mi NNE 13.8 mph 23.0 mph N/A   Scattered Clouds
4:34 PM 48.2 °F - 35.6 °F 62% 29.91 in 10.0 mi North 17.3 mph 25.3 mph N/A   Scattered Clouds
4:55 PM 50.0 °F - 35.6 °F 58% 29.90 in 10.0 mi North 13.8 mph 20.7 mph N/A   Clear
5:15 PM 50.0 °F - 35.6 °F 58% 29.89 in 10.0 mi North 16.1 mph 23.0 mph N/A   Clear
5:34 PM 50.0 °F - 35.6 °F 58% 29.88 in 10.0 mi North 16.1 mph 21.9 mph N/A   Scattered Clouds
5:55 PM 48.2 °F - 35.6 °F 62% 29.89 in 10.0 mi North 17.3 mph 25.3 mph N/A   Scattered Clouds
6:14 PM 48.2 °F - 35.6 °F 62% 29.88 in 10.0 mi North 11.5 mph 24.2 mph N/A   Mostly Cloudy
6:34 PM 46.4 °F 40.1 °F 37.4 °F 71% 29.89 in 10.0 mi North 15.0 mph 24.2 mph N/A   Scattered Clouds
6:55 PM 46.4 °F 39.8 °F 37.4 °F 71% 29.89 in 10.0 mi North 16.1 mph 21.9 mph N/A   Scattered Clouds
7:14 PM 46.4 °F 39.0 °F 37.4 °F 71% 29.89 in 10.0 mi North 19.6 mph 25.3 mph N/A   Scattered Clouds
7:34 PM 46.4 °F 39.5 °F 35.6 °F 66% 29.89 in 10.0 mi NNE 17.3 mph 26.5 mph N/A   Mostly Cloudy
7:55 PM 46.4 °F 39.2 °F 35.6 °F 66% 29.88 in 10.0 mi NNE 18.4 mph 26.5 mph N/A   Overcast
8:14 PM 46.4 °F 39.5 °F 35.6 °F 66% 29.88 in 10.0 mi NNE 17.3 mph 26.5 mph N/A   Overcast
8:54 PM 44.6 °F 37.2 °F 35.6 °F 71% 29.87 in 10.0 mi North 17.3 mph 24.2 mph N/A   Overcast
9:14 PM 44.6 °F 37.8 °F 35.6 °F 71% 29.86 in 10.0 mi North 15.0 mph 21.9 mph N/A   Mostly Cloudy
9:34 PM 44.6 °F 37.8 °F 35.6 °F 71% 29.85 in 10.0 mi North 15.0 mph 23.0 mph N/A   Mostly Cloudy
9:54 PM 44.6 °F 37.8 °F 35.6 °F 71% 29.85 in 10.0 mi North 15.0 mph 23.0 mph N/A   Mostly Cloudy
10:14 PM 42.8 °F 34.3 °F 35.6 °F 76% 29.84 in 10.0 mi North 19.6 mph 27.6 mph N/A   Clear
10:34 PM 42.8 °F 34.5 °F 35.6 °F 76% 29.83 in 10.0 mi North 18.4 mph 25.3 mph N/A   Clear
10:54 PM 42.8 °F 35.1 °F 35.6 °F 76% 29.83 in 10.0 mi North 16.1 mph 26.5 mph N/A   Clear
11:14 PM 42.8 °F 34.3 °F 35.6 °F 76% 29.82 in 10.0 mi North 19.6 mph 27.6 mph N/A   Clear
11:35 PM 42.8 °F 35.1 °F 35.6 °F 76% 29.81 in 10.0 mi NNE 16.1 mph 25.3 mph N/A   Clear